Location: Gilevgi
(36.8751°N, 30.0581°E)
Time: 05:32:09
(UTC+00:00)

Okean 1-7 Rocket - Pass Details

Date: 18 March 2026
Orbit: 609 x 643 km, 82.5° (Epoch: 15 April)

Event Time Altitude Azimuth Distance (km) Brightness Sun altitude
Rises 17:05:19 0° 226° (SW) 2,940 7.6 -11.9°
Reaches altitude 10° 17:08:18 10° 247° (WSW) 2,035 7.2 -12.5°
Maximum altitude 17:11:12 17° 287° (WNW) 1,640 6.9 -13.1°
Drops below altitude 10° 17:14:06 10° 327° (NNW) 2,040 6.8 -13.7°
Sets 17:17:07 0° 348° (NNW) 2,950 7.3 -14.2°
